| time (UTC) | temp C | wind direction | speed KPH | gust KPH | rain 1hr cm | rain 24hr cm | rain mn cm | humidity % | barometer mb |
| 20260507120847 | 13 | 360 | 8.0 | 9.7 | 0.00 | 0.23 | 0.03 | 84 | 1011.3 |
| 20260507110901 | 13 | 12 | 6.4 | 9.7 | 0.00 | 0.23 | 0.03 | 82 | 1011.3 |
| 20260507100859 | 13 | 360 | 6.4 | 11.3 | 0.00 | 0.23 | 0.03 | 83 | 1010.5 |
| 20260507090853 | 14 | 53 | 8.0 | 8.0 | 0.03 | 0.23 | 0.03 | 89 | 1010.5 |
| 20260507080901 | 16 | 24 | 20.9 | 20.9 | 0.00 | 0.20 | 0.00 | 89 | 1010.3 |
| 20260507070842 | 19 | 323 | 3.2 | 3.2 | 0.00 | 0.20 | 0.00 | 89 | 1009.5 |
| 20260507060907 | 20 | 194 | 4.8 | 4.8 | 0.00 | 0.20 | 0.00 | 85 | 1008.3 |
| 20260507050855 | 20 | 205 | 6.4 | 6.4 | 0.00 | 0.20 | 0.00 | 85 | 1009.3 |
| 20260507040852 | 20 | 212 | 6.4 | 6.4 | 0.00 | 0.20 | 0.00 | 85 | 1009.3 |
| 20260507030855 | 20 | 192 | 6.4 | 9.7 | 0.00 | 0.20 | 0.20 | 84 | 1009.4 |
| 20260507020858 | 20 | 200 | 9.7 | 9.7 | 0.00 | 0.20 | 0.20 | 84 | 1009.8 |
| 20260507000918 | 20 | 211 | 3.2 | 8.0 | 0.00 | 0.20 | 0.20 | 81 | 1009.8 |
| 20260506230858 | 21 | 188 | 9.7 | 9.7 | 0.00 | 0.20 | 0.20 | 77 | 1009.3 |
| 20260506220902 | 21 | 233 | 6.4 | 6.4 | 0.00 | 0.20 | 0.20 | 76 | 1009.3 |
| 20260506210844 | 21 | 185 | 6.4 | 14.5 | 0.00 | 0.20 | 0.20 | 77 | 1009.3 |
| 20260506200844 | 20 | 207 | 8.0 | 8.0 | 0.00 | 0.20 | 0.20 | 83 | 1009.8 |
| 20260506190901 | 19 | 169 | 6.4 | 8.0 | 0.03 | 0.20 | 0.20 | 84 | 1009.8 |
| 20260506180907 | 18 | 174 | 11.3 | 16.1 | 0.00 | 0.18 | 0.18 | 84 | 1010.8 |
| 20260506170903 | 18 | 182 | 6.4 | 6.4 | 0.00 | 0.18 | 0.18 | 88 | 1010.5 |
| 20260506160854 | 17 | 173 | 6.4 | 8.0 | 0.03 | 0.18 | 0.18 | 89 | 1011.0 |
| 20260506150850 | 17 | 160 | 8.0 | 12.9 | 0.15 | 0.15 | 0.15 | 89 | 1011.9 |
| 20260506140906 | 17 | 176 | 8.0 | 11.3 | 0.00 | 0.00 | 0.00 | 83 | 1012.1 |
| 20260506130908 | 18 | 186 | 8.0 | 8.0 | 0.00 | 0.00 | 0.00 | 74 | 1011.7 |